• In Uzbekistan
  • List of Countries
  • For 7 days
  • Water Temperature
  • Satellite Maps
  • Weather Map
  • Weather Widgets
  • user-avatar
    Login

    Hourly Weather Mostar

    Today, 18 October, Wednesday

    Time Temperature Precipitation Wind Pressure Humidity
    00:00 +20°C° 0 mm 1 mps 759 mmHg 45%
    01:00 +20°C° 0 mm 1 mps 759 mmHg 42%
    02:00 +20°C° 0 mm 1 mps 759 mmHg 42%
    03:00 +20°C° 0 mm 1 mps 758 mmHg 41%
    04:00 +20°C° 0 mm 1 mps 758 mmHg 40%
    05:00 +20°C° 0 mm 1 mps 758 mmHg 41%
    06:00 +20°C° 0 mm 1 mps 758 mmHg 43%
    07:00 +20°C° 0 mm 1 mps 758 mmHg 45%
    08:00 +22°C° 0 mm 1 mps 758 mmHg 42%
    09:00 +24°C° 0 mm 1 mps 758 mmHg 39%
    10:00 +26°C° 0 mm 1 mps 757 mmHg 35%
    11:00 +26°C° 0 mm 1 mps 757 mmHg 36%
    12:00 +27°C° 0 mm 1 mps 757 mmHg 37%
    13:00 +27°C° 0 mm 2 mps 757 mmHg 40%
    14:00 +26°C° 0 mm 1 mps 757 mmHg 45%
    15:00 +25°C° 0 mm 1 mps 757 mmHg 49%
    16:00 +25°C° 0 mm 1 mps 756 mmHg 53%
    17:00 +23°C° 0 mm 1 mps 756 mmHg 56%
    18:00 +22°C° 0 mm 1 mps 757 mmHg 60%
    19:00 +18°C° 0 mm 0 mps 757 mmHg 63%
    20:00 +20°C° 0 mm 1 mps 757 mmHg 64%
    21:00 +20°C° 0 mm 1 mps 757 mmHg 65%
    22:00 +19°C° 0 mm 1 mps 757 mmHg 65%
    23:00 +19°C° 0 mm 1 mps 757 mmHg 65%

    Tomorrow, 19 October, Thursday

    Time Temperature Precipitation Wind Pressure Humidity
    00:00 +19°C° 0 mm 1 mps 757 mmHg 66%
    01:00 +19°C° 0 mm 1 mps 757 mmHg 66%
    02:00 +18°C° 0 mm 1 mps 757 mmHg 66%
    03:00 +18°C° 0 mm 1 mps 756 mmHg 66%
    04:00 +17°C° 0 mm 2 mps 756 mmHg 66%
    05:00 +17°C° 0 mm 2 mps 756 mmHg 66%
    06:00 +17°C° 0 mm 2 mps 756 mmHg 66%
    07:00 +17°C° 0 mm 2 mps 756 mmHg 65%
    08:00 +19°C° 0 mm 2 mps 756 mmHg 60%
    09:00 +21°C° 0 mm 2 mps 756 mmHg 54%
    10:00 +24°C° 0 mm 2 mps 756 mmHg 48%
    11:00 +24°C° 0 mm 2 mps 756 mmHg 48%
    12:00 +25°C° 0 mm 2 mps 756 mmHg 48%
    13:00 +25°C° 0 mm 2 mps 756 mmHg 48%
    14:00 +25°C° 0 mm 2 mps 756 mmHg 52%
    15:00 +24°C° 0 mm 2 mps 756 mmHg 57%
    16:00 +23°C° 0 mm 2 mps 756 mmHg 61%
    17:00 +22°C° 0 mm 1 mps 756 mmHg 67%
    18:00 +20°C° 0 mm 1 mps 756 mmHg 73%
    19:00 +19°C° 0 mm 1 mps 756 mmHg 79%
    20:00 +18°C° 0 mm 1 mps 756 mmHg 79%
    21:00 +18°C° 0 mm 1 mps 757 mmHg 79%
    22:00 +17°C° 0 mm 2 mps 757 mmHg 79%
    23:00 +17°C° 0 mm 2 mps 757 mmHg 79%

    Day after tomorrow, 20 October, Friday

    Time Temperature Precipitation Wind Pressure Humidity
    00:00 +16°C° 0 mm 2 mps 757 mmHg 78%
    01:00 +16°C° 0 mm 2 mps 757 mmHg 77%
    02:00 +16°C° 0 mm 2 mps 757 mmHg 76%
    03:00 +16°C° 0 mm 2 mps 757 mmHg 76%
    04:00 +16°C° 0 mm 2 mps 756 mmHg 75%
    05:00 +16°C° 0 mm 2 mps 757 mmHg 74%
    06:00 +16°C° 0 mm 2 mps 757 mmHg 72%
    07:00 +16°C° 0 mm 2 mps 757 mmHg 71%
    08:00 +18°C° 0 mm 2 mps 757 mmHg 65%
    09:00 +20°C° 0 mm 2 mps 757 mmHg 58%
    10:00 +23°C° 0 mm 2 mps 757 mmHg 51%
    11:00 +23°C° 0 mm 2 mps 757 mmHg 51%
    12:00 +24°C° 0 mm 2 mps 757 mmHg 51%
    13:00 +24°C° 0 mm 2 mps 757 mmHg 52%
    14:00 +24°C° 0 mm 2 mps 757 mmHg 56%
    15:00 +23°C° 0 mm 2 mps 756 mmHg 61%
    16:00 +22°C° 0 mm 1 mps 756 mmHg 66%
    17:00 +21°C° 0 mm 1 mps 757 mmHg 72%
    18:00 +20°C° 0 mm 1 mps 757 mmHg 79%
    19:00 +16°C° 0 mm 0 mps 757 mmHg 85%
    20:00 +18°C° 0 mm 1 mps 758 mmHg 85%
    21:00 +18°C° 0 mm 1 mps 758 mmHg 86%
    22:00 +16°C° 0 mm 1 mps 758 mmHg 86%
    23:00 +16°C° 0 mm 1 mps 758 mmHg 85%

    21 October, Saturday

    Time Temperature Precipitation Wind Pressure Humidity
    00:00 +16°C° 0 mm 1 mps 758 mmHg 84%
    01:00 +16°C° 0 mm 1 mps 758 mmHg 84%
    02:00 +15°C° 0 mm 1 mps 758 mmHg 83%
    03:00 +15°C° 0 mm 1 mps 758 mmHg 82%
    04:00 +15°C° 0 mm 1 mps 758 mmHg 82%
    05:00 +15°C° 0 mm 1 mps 758 mmHg 80%
    06:00 +15°C° 0 mm 1 mps 758 mmHg 78%
    07:00 +15°C° 0 mm 1 mps 758 mmHg 77%
    08:00 +19°C° 0 mm 1 mps 758 mmHg 68%
    09:00 +21°C° 0 mm 1 mps 758 mmHg 60%
    10:00 +23°C° 0 mm 1 mps 758 mmHg 51%
    11:00 +24°C° 0 mm 1 mps 758 mmHg 49%
    12:00 +24°C° 0 mm 2 mps 758 mmHg 48%
    13:00 +25°C° 0 mm 2 mps 758 mmHg 46%
    14:00 +24°C° 0 mm 2 mps 757 mmHg 51%
    15:00 +23°C° 0 mm 2 mps 757 mmHg 55%
    16:00 +23°C° 0 mm 2 mps 757 mmHg 60%
    17:00 +20°C° 0 mm 2 mps 757 mmHg 66%
    18:00 +19°C° 0 mm 2 mps 757 mmHg 71%
    19:00 +17°C° 0 mm 2 mps 757 mmHg 77%
    20:00 +17°C° 0 mm 2 mps 757 mmHg 76%
    21:00 +18°C° 0 mm 1 mps 757 mmHg 75%
    22:00 +16°C° 0 mm 1 mps 757 mmHg 74%
    23:00 +16°C° 0 mm 1 mps 757 mmHg 74%

    22 October, Sunday

    Time Temperature Precipitation Wind Pressure Humidity
    00:00 +16°C° 0 mm 1 mps 757 mmHg 74%
    01:00 +16°C° 0 mm 1 mps 757 mmHg 73%
    02:00 +16°C° 0 mm 1 mps 757 mmHg 73%
    03:00 +15°C° 0 mm 1 mps 757 mmHg 74%
    04:00 +15°C° 0 mm 1 mps 756 mmHg 74%
    05:00 +15°C° 0 mm 1 mps 756 mmHg 73%
    06:00 +16°C° 0 mm 1 mps 756 mmHg 73%
    07:00 +16°C° 0 mm 1 mps 756 mmHg 72%
    08:00 +19°C° 0 mm 1 mps 756 mmHg 66%
    09:00 +19°C° 0 mm 2 mps 756 mmHg 61%
    10:00 +21°C° 0 mm 2 mps 755 mmHg 56%
    11:00 +23°C° 0 mm 2 mps 755 mmHg 57%
    12:00 +23°C° 0 mm 2 mps 754 mmHg 58%
    13:00 +22°C° 0 mm 3 mps 754 mmHg 58%
    14:00 +22°C° 0 mm 3 mps 754 mmHg 63%
    15:00 +21°C° 0 mm 3 mps 753 mmHg 67%
    16:00 +21°C° 0 mm 3 mps 753 mmHg 71%
    17:00 +20°C° 0.1 mm 3 mps 752 mmHg 76%
    18:00 +19°C° 0.1 mm 4 mps 752 mmHg 81%
    19:00 +18°C° 0.1 mm 4 mps 752 mmHg 86%
    20:00 +18°C° 0.9 mm 4 mps 752 mmHg 87%
    21:00 +17°C° 0.9 mm 5 mps 751 mmHg 88%
    22:00 +16°C° 0.9 mm 5 mps 751 mmHg 89%
    23:00 +16°C° 2.2 mm 5 mps 751 mmHg 89%

    23 October, Monday

    Time Temperature Precipitation Wind Pressure Humidity
    00:00 +16°C° 2.2 mm 5 mps 750 mmHg 89%
    01:00 +16°C° 2.2 mm 6 mps 750 mmHg 90%
    02:00 +16°C° 1.8 mm 5 mps 750 mmHg 89%
    03:00 +15°C° 1.8 mm 5 mps 750 mmHg 89%
    04:00 +15°C° 1.8 mm 4 mps 750 mmHg 88%
    05:00 +14°C° 2.7 mm 5 mps 750 mmHg 87%
    06:00 +14°C° 2.7 mm 5 mps 750 mmHg 86%
    07:00 +13°C° 2.7 mm 6 mps 750 mmHg 85%
    08:00 +12°C° 1.4 mm 7 mps 750 mmHg 83%
    09:00 +12°C° 1.4 mm 7 mps 751 mmHg 80%
    10:00 +12°C° 1.4 mm 8 mps 751 mmHg 77%
    11:00 +12°C° 0.4 mm 8 mps 751 mmHg 74%
    12:00 +12°C° 0.4 mm 8 mps 751 mmHg 71%
    13:00 +12°C° 0.4 mm 8 mps 751 mmHg 68%
    14:00 +12°C° 0.1 mm 8 mps 752 mmHg 67%
    15:00 +12°C° 0.1 mm 9 mps 752 mmHg 67%
    16:00 +12°C° 0.1 mm 9 mps 752 mmHg 67%
    17:00 +11°C° 0 mm 9 mps 753 mmHg 66%
    18:00 +11°C° 0 mm 9 mps 753 mmHg 66%
    19:00 +11°C° 0 mm 9 mps 753 mmHg 66%
    20:00 +11°C° 0 mm 9 mps 753 mmHg 66%
    21:00 +11°C° 0 mm 8 mps 754 mmHg 65%
    22:00 +11°C° 0 mm 8 mps 754 mmHg 64%
    23:00 +11°C° 0.1 mm 8 mps 754 mmHg 65%
    Show more